OneWeb SL0495

operational
NORAD ID: 54115 Int'l Des: 2022-138 Owner: ONEWEBN Country: UK Constellation: oneweb
LEOCIRCULARPOLARONEWEB_TYPE

关于 OneWeb SL0495

正在加载描述...

实时位置

正在加载3D地球...

即将过境

高度历史

Altitude vs Time

uPlot chart will show altitude changes over time

两行轨道根数

1 54115U 22138C 25354.21011367 .00000040 00000-0 68008-4 0 9992
2 54115 87.9199 340.5863 0002283 71.5026 288.6355 13.19724483153217
Epoch: Dec 20, 2025 • Age: 5 hours

当前状态

高度 1187.9 km
速度 7.26 km/s
星下点 1.35°N, 93.7°E
发射日期 Oct 22, 2022
运行时间 3.1 years
类型 internet

技术详情

分类 Payload
质量 148.00 kg
干质量 140.00 kg
总质量 148.00 kg
长度 1.30 m
直径 1.00 m
跨度 5.00 m
形状 Trapezoid+2 pan
制造商 ONEWUS
平台类型 ARROW
阶段状态 In Orbit
所有者/国家 ONEWEBN/UK

大型星座

Loading constellations...